Temperature
16 17 17 18 18 18 19 21 22 22 21 21 20 21 20 19 19 16 15 15 15 15 14 14 14 14 14 14 14 14 14 14 14 14 14 14 15 15 15 15 15 15 15 15 15 15 15 15 15
16 16 17 18 18 18 20 21 21 21 20 20 20 20 20 19 17 16 15 14 14 14 14 14 14 14 14 14 14 14 14 14 14 14 14 14 14 14 14 15 14 14 15 15 15 15 15 15 15
16 16 17 18 19 19 20 21 20 20 19 19 20 19 19 18 16 15 14 14 14 14 14 14 14 14 14 14 14 14 14 14 14 14 14 14 14 14 14 14 14 14 14 14 14 14 14 14 14
16 17 18 18 19 20 20 20 20 20 19 19 19 19 17 16 15 15 14 14 14 13 13 13 14 13 13 13 13 13 13 13 13 13 13 14 14 14 14 14 14 14 14 14 14 14 14 14 14
16 18 17 18 18 20 20 20 20 19 19 19 19 18 16 15 15 14 14 14 13 13 13 13 13 13 13 13 13 13 13 13 13 13 13 13 13 13 13 14 14 14 14 14 14 14 14 14 14
17 18 17 17 19 20 20 19 19 19 19 19 18 17 16 15 14 14 14 13 13 13 13 13 13 13 13 13 13 13 13 13 13 13 13 13 13 13 13 13 13 13 13 13 14 14 14 14 14
17 17 17 18 18 19 19 19 18 18 18 18 18 17 16 14 14 14 13 13 13 13 13 13 13 13 13 12 13 12 13 13 13 13 13 13 13 13 13 13 13 13 13 13 13 13 13 13 13
16 16 18 18 18 18 18 18 18 17 17 17 17 16 15 14 13 13 13 13 12 12 12 12 12 12 12 12 12 12 12 12 12 12 12 12 12 12 13 13 13 12 13 13 13 13 13 13 13
16 15 16 18 18 18 18 17 17 17 16 16 16 15 14 14 13 13 12 12 12 12 12 12 12 12 12 12 12 12 12 12 12 12 12 12 12 12 12 12 12 12 12 12 12 13 13 13 13
16 15 16 17 17 17 17 16 16 16 16 16 15 14 14 13 13 12 12 12 12 12 12 11 11 11 11 11 11 11 11 11 11 11 11 11 11 11 11 12 12 12 12 12 12 12 12 12 12
16 15 16 16 16 16 16 16 16 15 15 15 15 14 14 13 13 12 12 12 12 12 11 11 11 11 11 11 11 11 11 11 11 11 11 11 11 11 11 11 11 11 12 12 12 12 12 12 12
15 16 16 15 15 15 15 15 15 15 15 14 14 14 13 13 13 12 12 12 11 11 11 11 11 11 11 11 10 10 11 11 11 11 11 11 11 11 11 11 11 11 11 11 11 11 11 11 11
15 15 15 15 14 14 14 14 14 14 14 14 13 13 13 13 12 12 12 11 11 11 11 11 11 11 10 10 10 10 10 10 10 10 10 10 10 10 10 11 11 11 11 11 11 11 11 11 11
15 14 14 14 14 14 13 13 13 13 13 13 13 13 12 12 12 12 11 11 11 11 11 10 10 10 10 10 10 10 10 10 10 10 10 10 10 10 10 10 10 10 11 11 11 11 11 10 11
14 13 13 14 14 14 13 12 13 13 13 13 13 13 12 12 12 11 11 11 11 11 10 10 10 10 10 10 9 9 9 9 10 10 10 10 10 10 10 10 10 10 10 10 10 10 10 10 10
14 13 13 14 14 14 12 12 14 14 13 13 13 12 12 12 11 11 11 11 11 10 10 10 10 10 10 9 9 9 9 9 9 9 9 9 9 9 10 10 10 10 10 10 10 10 10 10 10
13 13 13 14 14 14 12 12 14 14 13 13 13 13 12 12 11 11 11 11 10 10 10 10 10 9 9 9 9 9 9 9 9 9 9 9 9 9 9 9 10 10 9 10 10 10 10 10 10
13 13 14 14 14 13 12 12 13 13 13 13 13 13 12 11 11 11 10 10 10 10 10 10 9 9 9 9 9 9 9 9 9 9 9 9 9 9 9 9 9 9 9 9 9 9 9 9 9
14 14 13 14 14 13 12 12 13 13 13 13 13 13 12 11 11 10 10 10 10 9 9 9 9 9 9 9 9 8 8 8 8 8 8 8 9 9 9 9 9 9 9 9 9 9 9 8 8
13 13 13 13 13 13 12 12 13 13 13 13 13 12 12 11 11 10 10 9 9 9 9 9 9 9 8 8 8 8 8 8 8 8 8 8 8 8 8 8 8 8 8 8 8 8 8 8 8
12 12 12 12 12 12 11 11 12 13 13 13 12 12 12 11 10 10 9 9 9 9 8 8 8 8 8 8 8 8 7 7 7 7 8 8 8 8 8 8 8 8 8 8 8 8 8 8 8
11 12 12 11 10 10 11 9 12 12 12 12 12 12 11 11 10 9 9 8 8 8 8 8 8 8 8 7 7 7 7 7 7 7 7 7 7 7 8 8 8 8 8 8 8 8 8 8 8
11 12 12 11 10 10 10 9 10 12 11 11 11 11 11 10 10 9 8 8 8 8 8 8 8 8 7 7 7 7 7 7 7 7 7 7 7 7 7 7 7 7 7 7 7 7 7 7 7
11 11 10 10 9 8 10 9 10 11 12 11 11 11 10 10 9 9 8 8 7 7 7 7 7 7 7 7 7 6 6 6 6 6 6 7 7 7 7 7 7 7 7 7 7 7 7 7 7
10 9 8 8 8 8 11 10 10 12 12 11 10 10 10 9 9 8 8 7 7 7 7 7 7 7 7 6 6 6 6 6 6 6 6 6 6 7 7 7 7 7 7 7 7 7 7 7 7
9 9 8 8 8 9 10 9 10 11 11 11 10 10 9 9 8 8 7 7 7 7 6 6 6 6 6 6 6 6 6 6 6 6 6 6 6 6 6 6 6 6 6 6 6 6 6 6 6
9 8 10 9 9 8 9 11 10 10 9 9 9 9 8 8 8 7 7 7 6 6 6 6 6 6 6 6 6 6 5 5 5 5 5 6 6 6 6 6 6 6 6 6 6 6 6 6 6
9 9 8 7 8 8 9 10 9 8 8 8 8 8 8 7 7 6 6 6 6 6 5 5 5 5 5 5 5 5 5 5 5 5 5 5 5 6 6 6 6 6 6 5 5 5 5 5 5
8 8 8 8 8 8 8 9 9 8 8 8 7 8 7 7 6 6 5 5 5 5 5 5 5 5 5 5 5 5 5 5 5 5 5 5 5 5 5 5 5 5 5 5 5 5 5 5 5
8 8 8 7 7 7 7 7 9 8 8 8 7 7 7 6 6 5 5 5 4 4 4 4 4 4 4 4 4 4 4 4 4 4 4 4 4 4 5 5 5 5 5 5 5 5 5 5 5
Wind_Speed
14 13 7 3 3 4 4 3 0 5 5 7 7 5 5 6 6 6 4 5 6 7 9 9 8 7 6 5 5 5 5 4 4 4 4 4 5 5 5 5 5 5 7 7 8 9 9 9 10
12 7 4 3 4 4 3 3 3 6 6 5 3 2 2 4 7 6 4 5 5 7 9 8 8 7 6 5 5 5 4 4 4 4 4 4 5 4 5 5 5 6 6 7 8 8 9 9 10
9 6 3 3 3 2 0 4 7 8 7 3 1 2 3 4 6 4 5 4 5 7 10 9 8 7 6 5 4 4 4 3 3 4 4 4 4 4 5 6 6 5 6 7 8 8 8 9 9
4 3 3 3 4 1 2 5 6 5 4 2 1 2 4 5 4 5 5 5 5 6 10 9 7 6 6 5 3 3 4 3 2 3 3 4 4 4 5 5 6 5 5 7 7 8 8 8 9
3 3 3 4 3 1 4 6 4 1 2 3 1 1 3 6 8 7 5 4 4 6 8 8 7 6 5 4 3 2 3 3 2 3 3 4 4 4 4 5 5 5 5 6 7 8 8 8 9
3 3 3 5 4 3 4 4 1 1 0 2 1 0 2 6 7 5 5 3 4 5 7 7 7 6 6 4 3 2 2 2 2 2 3 3 3 3 4 4 5 5 5 6 6 7 7 8 8
3 3 3 3 2 2 3 4 1 1 1 1 1 0 3 6 6 5 4 4 4 5 5 5 5 5 5 5 4 3 2 3 3 3 3 3 3 3 3 4 4 5 5 6 6 7 7 8 7
4 3 3 3 3 1 3 2 2 2 2 2 2 0 2 4 5 4 4 3 3 4 4 3 4 4 4 4 4 4 3 4 4 3 3 3 3 3 4 4 4 5 6 6 6 6 7 7 6
4 2 3 2 1 2 4 2 1 1 2 1 1 1 4 5 4 3 2 2 2 3 3 2 2 3 3 3 4 5 4 3 4 4 4 4 3 4 4 5 5 5 6 6 6 6 7 7 5
2 2 1 3 4 3 2 1 1 1 3 2 1 1 3 3 3 2 2 2 2 2 2 2 1 1 2 3 4 4 4 4 3 3 3 3 3 4 4 6 6 6 6 6 6 6 7 6 5
2 2 1 3 5 3 1 2 2 3 4 2 2 1 1 2 2 2 2 2 2 2 2 2 2 1 2 2 2 2 3 3 3 3 2 2 3 4 5 5 6 6 6 6 5 5 4 5 4
2 2 1 2 2 1 2 2 4 5 3 2 2 0 2 2 2 3 3 2 2 2 2 2 2 1 1 1 1 2 2 2 2 3 3 2 2 2 3 3 5 5 4 4 4 3 4 4 5
4 2 1 1 1 3 3 5 5 6 4 3 2 2 2 2 2 2 2 2 3 2 2 2 3 2 1 1 0 1 1 2 3 4 4 4 2 1 1 2 4 5 5 4 3 3 3 3 4
1 1 3 3 4 4 5 6 5 6 4 3 4 4 3 2 2 1 1 2 3 3 3 3 2 2 1 1 1 1 1 2 3 3 3 4 4 2 1 1 2 3 4 4 4 3 3 3 3
1 3 5 6 6 4 3 7 8 6 4 4 4 3 3 2 2 2 2 3 2 3 3 3 3 2 2 2 1 1 1 2 2 3 3 3 3 3 2 2 2 2 3 4 3 3 4 3 3
5 5 4 6 6 5 4 7 4 4 4 5 4 3 3 3 2 2 2 2 2 3 3 3 2 3 2 1 1 1 2 1 1 3 3 3 3 4 3 2 2 3 3 3 2 2 3 3 3
6 5 6 4 7 5 6 7 3 4 5 5 5 4 3 2 2 1 2 2 2 3 3 3 2 2 2 1 1 2 2 2 1 3 3 3 3 3 4 2 2 4 3 3 2 2 2 3 4
4 5 5 5 5 5 7 9 6 5 6 6 4 4 3 2 2 2 2 2 2 3 3 3 3 2 2 2 2 2 2 1 1 2 2 3 3 3 4 3 3 4 3 2 3 3 3 3 4
7 8 8 5 2 4 9 11 9 7 6 6 5 4 3 2 2 3 3 3 2 2 3 3 3 3 3 2 2 2 2 1 0 1 2 3 3 3 3 2 2 3 3 3 3 3 4 3 3
9 9 8 5 2 4 8 12 10 9 9 7 6 4 3 2 2 3 3 3 2 2 2 2 3 2 2 2 2 1 2 1 1 1 1 2 2 3 3 3 2 2 3 3 3 3 3 2 3
9 8 7 5 4 6 7 10 9 6 6 6 5 4 3 3 2 3 3 2 2 1 2 2 2 2 3 3 2 2 1 1 1 1 1 0 1 2 2 3 3 3 3 3 4 4 4 4 3
8 5 6 5 4 5 5 6 6 6 6 6 6 4 3 3 3 4 3 3 2 1 2 2 2 2 2 3 3 3 3 2 2 2 1 1 1 2 2 3 3 3 3 3 4 3 3 4 4
4 3 5 6 6 7 7 6 7 5 6 7 6 5 4 3 3 4 4 3 3 3 3 2 2 1 2 3 3 2 2 1 1 2 2 2 1 2 2 3 3 3 2 3 3 3 3 3 3
2 3 5 5 4 6 8 7 6 4 6 6 5 4 4 4 3 4 4 4 4 4 3 2 2 1 2 2 2 2 2 1 1 2 2 2 1 1 2 2 3 3 3 3 3 3 4 3 3
3 2 1 2 4 6 5 5 5 1 4 6 6 5 4 3 4 4 4 4 3 3 2 2 1 1 1 2 1 1 2 2 2 2 2 2 2 1 3 2 2 3 3 3 3 3 3 3 4
6 5 4 4 4 3 3 6 2 5 7 7 7 5 5 3 3 4 4 4 3 3 2 2 2 1 1 2 1 1 2 1 1 1 2 2 2 2 3 3 3 3 3 4 4 3 3 3 4
4 5 4 4 5 4 6 4 2 4 5 5 4 4 4 3 4 4 4 4 3 3 2 2 1 1 0 1 1 1 2 2 1 1 1 1 1 2 2 2 3 3 3 4 4 4 4 4 4
4 3 2 3 4 5 6 6 3 5 4 3 2 2 3 4 4 4 4 4 3 3 3 3 2 2 1 1 1 1 1 2 1 2 1 1 1 2 2 3 3 3 3 3 4 3 4 4 4
4 4 4 4 4 3 4 2 2 4 4 3 2 2 3 4 4 4 4 3 3 3 3 2 2 2 2 1 1 1 1 1 1 1 1 2 1 2 2 3 3 3 3 3 3 3 4 4 4
4 5 4 4 5 4 4 3 3 5 4 3 2 3 3 3 4 4 4 3 3 3 3 3 2 2 2 2 1 1 1 0 1 1 1 1 1 1 1 2 2 3 3 3 4 4 4 5 5
Wind_Direction
298 272 252 254 241 229 226 232 67 72 61 41 26 6 9 21 29 88 110 61 81 101 110 116 114 119 121 118 114 109 104 102 102 109 109 100 96 97 106 106 102 105 109 109 108 109 109 105 104
292 283 262 242 241 228 219 198 113 77 70 56 34 360 13 61 65 87 76 60 79 97 104 106 111 113 119 122 117 115 112 108 106 113 115 111 107 104 110 116 108 101 104 107 111 113 111 108 109
276 271 259 242 242 259 107 73 79 79 79 64 37 21 27 52 65 73 77 77 79 96 102 101 113 115 114 116 118 123 122 119 112 115 116 119 118 114 117 122 110 103 106 111 112 115 114 114 114
275 241 243 250 247 300 37 74 76 90 101 83 15 77 85 64 65 79 83 81 85 95 102 108 105 118 121 123 120 133 136 129 122 126 124 126 124 122 125 128 116 110 113 121 120 123 119 119 120
245 252 230 226 235 261 66 68 68 127 141 125 58 46 76 83 78 83 84 78 90 96 101 112 109 115 124 125 128 135 150 149 141 142 135 130 128 126 127 124 123 116 123 124 123 128 127 123 122
257 247 239 221 201 171 101 85 81 288 29 94 93 37 82 96 85 84 85 84 82 97 107 119 123 119 125 121 114 111 125 142 151 143 137 133 130 131 132 128 133 128 131 129 126 125 127 125 124
284 269 258 255 213 159 102 87 100 291 286 80 46 10 119 94 89 83 81 78 79 86 102 118 124 121 125 125 119 108 109 130 130 130 131 131 133 140 140 136 136 136 135 134 129 127 130 130 129
304 293 257 240 224 187 100 98 47 358 335 28 35 325 107 95 97 92 89 83 80 91 96 104 121 121 122 130 130 123 120 122 127 127 130 135 143 152 150 137 138 139 137 132 132 130 131 133 135
280 266 251 254 235 112 102 126 118 66 293 308 71 47 69 95 101 101 104 107 110 103 107 108 108 118 127 134 132 125 131 131 135 137 147 157 158 160 152 143 140 141 140 135 138 139 136 136 144
251 247 308 5 13 39 83 259 286 244 229 220 141 84 101 122 139 153 174 187 169 144 132 119 96 93 121 132 130 141 144 140 144 143 157 177 161 142 134 132 137 137 138 140 146 145 144 148 149
233 252 13 10 28 31 345 280 260 260 249 234 219 195 144 170 177 188 208 203 183 151 142 124 104 81 88 96 139 144 150 157 153 139 151 160 143 121 118 121 127 131 138 137 144 147 158 158 146
245 284 317 339 32 347 275 285 279 248 261 334 336 249 233 228 215 211 214 210 180 158 156 137 114 109 95 111 124 133 127 153 138 144 142 133 112 109 131 145 149 153 158 149 156 165 155 154 147
225 243 272 283 247 254 261 259 269 269 275 270 251 238 231 230 234 223 206 199 184 171 163 144 136 147 130 125 131 152 150 150 152 156 156 138 110 126 131 143 147 154 158 155 157 161 145 146 141
263 256 258 246 235 237 249 255 246 246 235 229 213 215 222 228 228 227 220 216 196 180 170 163 155 151 155 164 185 167 143 145 144 150 165 152 148 138 144 128 121 142 155 157 155 146 127 125 116
241 240 239 224 220 215 241 256 228 222 208 224 209 208 215 208 216 219 218 212 193 180 166 165 167 160 172 176 176 118 119 134 132 150 157 148 144 143 137 124 113 115 137 139 126 114 109 111 106
225 233 230 198 191 177 198 258 224 176 196 224 210 208 212 210 213 219 217 194 175 171 163 160 164 159 161 151 125 99 111 105 135 148 145 147 144 146 136 130 131 128 121 113 101 100 103 109 108
214 236 237 202 187 180 210 259 226 173 201 225 222 216 208 199 205 213 202 175 168 161 145 145 152 158 157 152 135 100 94 78 96 124 130 142 146 150 133 128 132 132 121 116 121 105 113 116 106
235 243 252 235 193 206 234 256 251 210 216 225 223 219 208 197 199 174 142 126 135 139 140 145 147 147 147 153 142 115 99 65 63 92 123 136 149 155 136 126 130 133 123 126 131 129 115 119 121
283 276 273 273 237 237 252 261 255 232 222 226 226 217 201 189 151 119 113 113 112 114 127 144 147 157 151 150 156 147 146 141 94 75 114 130 142 148 134 131 139 139 142 153 150 137 135 134 124
267 271 270 280 230 259 269 270 258 232 218 217 218 205 176 144 126 115 105 98 107 135 147 147 158 155 152 145 145 152 153 146 143 66 88 135 146 148 146 135 148 154 149 152 151 144 146 152 146
256 258 267 278 300 260 275 281 245 221 211 200 193 183 165 152 140 128 122 109 94 114 156 157 152 152 143 132 132 139 147 143 133 144 162 162 156 148 145 150 155 165 163 169 168 163 161 172 183
258 264 273 272 272 257 220 280 252 206 205 199 191 174 162 141 137 139 131 119 121 114 108 109 119 135 149 150 154 166 172 176 184 170 164 168 160 159 162 160 168 172 167 168 180 173 173 171 180
268 310 284 265 257 271 244 248 273 188 206 205 182 167 151 134 138 138 132 132 114 96 92 99 100 116 128 145 155 164 189 188 166 163 162 175 192 178 176 172 168 173 175 178 183 174 176 177 182
277 307 278 255 242 254 230 218 270 212 203 178 166 153 137 129 124 120 115 108 98 93 93 97 120 132 132 143 156 178 191 179 176 167 171 182 186 197 201 184 172 180 184 186 191 185 186 188 183
226 212 256 232 216 237 208 211 243 154 105 121 130 127 119 118 112 107 105 98 104 109 112 127 124 129 139 141 164 195 186 184 197 185 184 185 187 205 205 201 188 187 192 191 190 188 196 195 193
221 219 208 226 234 262 238 229 221 88 78 81 91 105 109 100 99 107 112 111 108 114 116 119 135 139 141 142 156 191 174 183 198 198 195 196 199 204 210 201 194 192 193 192 187 192 202 203 202
222 232 271 283 281 267 243 220 124 88 82 85 88 93 108 99 85 91 97 104 105 107 102 101 105 114 141 144 151 185 179 180 190 188 202 201 200 212 208 203 193 195 190 186 186 196 201 200 203
252 273 231 214 235 246 249 240 219 158 143 118 98 82 92 92 86 82 74 73 88 95 86 68 63 60 50 185 183 180 184 189 193 183 197 206 205 209 206 204 193 190 190 190 189 197 199 198 204
210 225 230 233 240 245 265 269 29 114 121 121 114 95 96 103 100 88 75 67 68 75 84 77 57 49 23 2 170 143 150 186 186 178 184 198 206 198 197 197 191 194 196 192 192 196 199 206 212
226 221 217 226 245 239 257 266 48 78 84 86 92 91 88 92 101 93 81 66 65 57 54 58 50 49 25 12 37 125 131 141 175 175 192 209 194 187 183 184 190 198 202 201 200 206 208 209 211
Height
1494 1495 1497 1500 1501 1502 1499 1491 1484 1487 1490 1494 1496 1496 1498 1501 1505 1514 1514 1511 1511 1511 1511 1512 1513 1514 1515 1516 1517 1518 1519 1519 1520 1521 1522 1524 1525 1526 1527 1528 1530 1531 1532 1534 1535 1536 1537 1538 1539
1494 1496 1499 1499 1501 1504 1498 1488 1488 1490 1494 1496 1498 1499 1500 1503 1506 1509 1510 1511 1511 1511 1511 1511 1512 1513 1514 1515 1516 1517 1518 1519 1520 1521 1522 1523 1524 1526 1527 1528 1530 1531 1532 1534 1535 1536 1538 1539 1540
1494 1496 1499 1497 1497 1498 1494 1488 1489 1492 1496 1498 1500 1501 1503 1506 1508 1509 1510 1510 1511 1511 1510 1511 1512 1513 1514 1515 1516 1517 1518 1519 1520 1521 1522 1523 1524 1525 1527 1528 1530 1531 1532 1533 1535 1536 1538 1539 1540
1496 1498 1498 1499 1497 1492 1489 1490 1491 1494 1497 1499 1501 1502 1504 1507 1508 1509 1509 1510 1511 1511 1510 1511 1512 1512 1513 1514 1515 1516 1517 1518 1519 1521 1522 1523 1524 1525 1526 1528 1529 1530 1532 1533 1535 1536 1538 1539 1541
1497 1497 1497 1498 1495 1490 1489 1491 1493 1495 1497 1499 1501 1502 1505 1507 1507 1508 1509 1510 1510 1510 1510 1510 1511 1512 1513 1514 1514 1515 1517 1518 1519 1520 1521 1522 1523 1524 1526 1527 1528 1530 1532 1533 1534 1536 1538 1539 1541
1497 1495 1498 1499 1493 1489 1490 1493 1495 1496 1497 1499 1501 1503 1506 1507 1507 1508 1508 1509 1509 1510 1509 1510 1510 1511 1512 1513 1514 1515 1516 1517 1518 1519 1520 1521 1523 1524 1525 1526 1528 1529 1531 1533 1534 1535 1537 1539 1540
1497 1495 1495 1492 1492 1491 1492 1494 1496 1497 1498 1500 1501 1503 1505 1506 1506 1507 1507 1508 1509 1509 1509 1509 1509 1510 1511 1511 1512 1513 1515 1516 1517 1518 1519 1521 1522 1523 1524 1525 1527 1529 1530 1532 1533 1535 1536 1538 1540
1496 1495 1493 1491 1492 1493 1493 1495 1497 1498 1499 1500 1501 1502 1504 1505 1506 1506 1507 1507 1508 1508 1508 1508 1508 1509 1509 1510 1511 1513 1514 1515 1516 1517 1518 1520 1521 1522 1523 1525 1526 1528 1529 1531 1532 1534 1536 1537 1539
1496 1499 1496 1491 1491 1492 1493 1496 1498 1499 1499 1500 1501 1502 1503 1504 1504 1505 1506 1506 1506 1507 1507 1507 1507 1508 1508 1509 1510 1511 1512 1513 1515 1516 1517 1518 1519 1521 1522 1523 1525 1527 1528 1530 1532 1533 1535 1537 1538
1496 1499 1494 1491 1490 1492 1494 1496 1497 1498 1499 1499 1500 1501 1502 1502 1503 1504 1504 1505 1505 1505 1506 1506 1506 1506 1507 1508 1508 1509 1511 1512 1513 1514 1515 1517 1518 1519 1521 1522 1524 1525 1527 1529 1531 1532 1534 1536 1537
1494 1495 1493 1493 1493 1494 1495 1497 1497 1498 1498 1498 1499 1499 1500 1501 1502 1502 1503 1503 1503 1504 1504 1504 1505 1505 1505 1506 1507 1508 1509 1510 1511 1513 1514 1515 1517 1518 1519 1521 1522 1524 1526 1527 1529 1531 1533 1535 1536
1494 1493 1493 1494 1495 1496 1496 1497 1497 1496 1496 1497 1497 1498 1498 1499 1499 1500 1500 1501 1501 1502 1502 1503 1503 1503 1504 1505 1505 1506 1507 1508 1509 1511 1512 1514 1515 1516 1518 1519 1521 1522 1524 1526 1528 1529 1531 1533 1535
1494 1494 1494 1495 1495 1496 1496 1496 1496 1495 1494 1494 1495 1496 1496 1496 1497 1498 1498 1499 1499 1499 1500 1500 1501 1501 1502 1503 1504 1505 1505 1506 1507 1509 1511 1512 1513 1515 1516 1518 1519 1521 1523 1524 1526 1528 1530 1532 1534
1492 1493 1494 1494 1494 1494 1495 1494 1495 1491 1492 1492 1493 1493 1494 1494 1494 1495 1495 1495 1496 1497 1497 1498 1498 1499 1500 1500 1502 1503 1504 1505 1506 1507 1509 1510 1511 1513 1514 1516 1517 1519 1521 1523 1524 1526 1528 1530 1532
1493 1494 1493 1491 1491 1492 1494 1493 1489 1488 1489 1490 1491 1491 1492 1492 1492 1492 1492 1492 1493 1494 1494 1495 1496 1497 1497 1498 1499 1500 1501 1503 1504 1505 1507 1508 1510 1511 1512 1514 1516 1517 1519 1521 1523 1525 1527 1529 1531
1492 1493 1493 1487 1488 1489 1495 1492 1484 1485 1486 1487 1488 1489 1489 1490 1490 1489 1489 1489 1490 1491 1492 1493 1493 1494 1495 1496 1497 1498 1499 1501 1502 1503 1505 1506 1508 1509 1510 1512 1513 1515 1517 1519 1521 1523 1525 1526 1528
1491 1492 1489 1486 1485 1486 1490 1488 1483 1483 1484 1485 1486 1486 1487 1487 1486 1487 1487 1487 1488 1489 1490 1490 1491 1492 1493 1494 1495 1496 1497 1499 1500 1501 1503 1504 1506 1507 1508 1510 1512 1513 1515 1517 1519 1521 1523 1524 1526
1490 1487 1484 1484 1483 1484 1486 1484 1481 1480 1481 1482 1482 1483 1483 1484 1484 1484 1484 1485 1485 1486 1487 1488 1489 1490 1490 1491 1493 1494 1495 1497 1498 1499 1500 1502 1503 1505 1506 1508 1510 1511 1513 1515 1517 1519 1521 1523 1525
1483 1483 1483 1481 1480 1483 1483 1480 1477 1477 1477 1478 1479 1479 1480 1481 1481 1481 1482 1482 1483 1484 1485 1486 1486 1487 1488 1489 1490 1491 1492 1494 1496 1497 1498 1500 1501 1503 1504 1505 1507 1509 1511 1513 1515 1517 1519 1521 1523
1483 1483 1482 1480 1479 1482 1480 1476 1472 1471 1472 1474 1475 1476 1477 1478 1478 1479 1479 1480 1481 1481 1482 1483 1484 1485 1486 1487 1488 1490 1491 1492 1494 1495 1496 1498 1499 1500 1501 1503 1505 1507 1509 1511 1512 1515 1516 1518 1520
1482 1483 1482 1483 1481 1480 1481 1476 1468 1466 1467 1469 1471 1472 1474 1475 1476 1477 1477 1478 1478 1479 1480 1481 1482 1482 1483 1484 1486 1487 1489 1490 1492 1493 1494 1495 1497 1498 1499 1501 1503 1504 1506 1508 1509 1511 1513 1515 1518
1483 1478 1479 1481 1486 1486 1481 1487 1465 1464 1465 1466 1467 1469 1471 1472 1473 1474 1475 1475 1476 1477 1478 1478 1479 1480 1481 1482 1483 1485 1486 1487 1488 1490 1491 1493 1494 1496 1497 1498 1500 1502 1503 1505 1507 1509 1511 1513 1514
1479 1477 1478 1480 1483 1484 1479 1484 1470 1460 1463 1463 1464 1466 1468 1470 1471 1472 1472 1473 1474 1475 1476 1476 1477 1478 1479 1480 1481 1482 1484 1485 1487 1488 1489 1490 1491 1493 1494 1496 1497 1499 1500 1502 1504 1505 1507 1509 1511
1478 1480 1479 1479 1483 1489 1475 1479 1470 1461 1457 1458 1461 1464 1466 1468 1469 1470 1471 1472 1473 1473 1474 1475 1475 1476 1477 1478 1479 1480 1482 1483 1484 1485 1486 1487 1488 1490 1491 1492 1494 1495 1497 1499 1501 1502 1504 1506 1508
1480 1484 1489 1488 1488 1481 1466 1469 1466 1455 1453 1455 1459 1462 1465 1467 1468 1469 1469 1470 1471 1472 1472 1473 1474 1475 1475 1476 1477 1478 1479 1480 1481 1482 1483 1484 1485 1487 1488 1489 1491 1492 1494 1495 1497 1499 1500 1502 1504
1479 1479 1486 1488 1482 1475 1466 1468 1461 1455 1455 1456 1459 1461 1464 1466 1467 1468 1469 1470 1470 1471 1471 1472 1472 1473 1474 1474 1475 1475 1476 1477 1479 1480 1481 1481 1483 1484 1485 1486 1488 1489 1490 1492 1493 1495 1497 1499 1500
1476 1477 1473 1478 1475 1477 1468 1457 1459 1457 1457 1458 1460 1462 1463 1465 1466 1467 1468 1469 1470 1470 1471 1471 1471 1472 1472 1472 1473 1474 1474 1475 1476 1477 1478 1479 1480 1481 1482 1483 1484 1486 1487 1488 1490 1491 1493 1495 1497
1474 1474 1478 1481 1480 1476 1463 1458 1461 1460 1459 1460 1462 1462 1463 1465 1466 1467 1468 1468 1469 1469 1470 1470 1470 1471 1471 1471 1471 1472 1473 1474 1474 1475 1475 1476 1477 1478 1479 1480 1482 1482 1484 1485 1486 1487 1489 1491 1492
1474 1475 1473 1474 1473 1475 1472 1466 1456 1456 1457 1460 1461 1463 1464 1465 1466 1466 1467 1468 1468 1469 1469 1469 1469 1469 1470 1470 1470 1470 1471 1471 1472 1472 1473 1474 1474 1475 1476 1477 1478 1479 1480 1481 1482 1484 1485 1487 1488
1468 1469 1472 1478 1475 1470 1472 1471 1457 1456 1457 1459 1461 1462 1464 1465 1466 1467 1467 1467 1467 1467 1467 1468 1468 1468 1468 1468 1468 1469 1469 1469 1470 1470 1471 1471 1472 1472 1473 1474 1475 1476 1477 1477 1479 1480 1481 1482 1484